Simultaneous Nadir Overpasses (SNOs) Predictions

Prediction of SNOs between AQUA and METOP-B Satellite Orbit:

Table of predicted SNOs for the next 14.0 days since TLE Epoch: 12/14/2013
Index Date (AQUA) Time (AQUA) Lat,Lon (AQUA) SZA (AQUA ) Date (METOP-B) Time (METOP-B) Lat,Lon (METOP-B) SZA (METOP-B ) Distance(km) Time Diff (sec)
1 12/14/2013 11:36:38 73.72, 0.29 96.90 12/14/2013 11:35:55 73.71, 0.40 96.89 3.46 43
2 12/14/2013 12:26:04 -73.75, 167.87 83.07 12/14/2013 12:26:37 -73.74, 167.79 83.09 2.74 33
3 12/17/2013 07:10:48 73.73, 66.73 97.05 12/17/2013 07:10:19 73.71, 66.80 97.03 3.45 29
4 12/17/2013 08:00:14 -73.76,-125.69 82.93 12/17/2013 08:01:00 -73.78,-125.69 82.90 3.06 46
5 12/20/2013 01:55:21 -73.36, -33.65 83.28 12/20/2013 01:54:11 -73.29, -35.08 83.30 46.09 70
6 12/20/2013 02:44:55 73.70, 133.25 97.09 12/20/2013 02:44:42 73.69, 133.17 97.09 2.70 13
7 12/20/2013 03:34:22 -73.78, -59.27 82.83 12/20/2013 03:35:23 -73.77, -59.32 82.84 1.62 61
8 12/22/2013 21:29:34 -73.65, 32.21 82.96 12/22/2013 21:28:27 -73.67, 32.18 82.93 2.19 67
9 12/22/2013 22:19:03 73.74,-160.35 97.14 12/22/2013 22:19:05 73.72,-160.36 97.12 2.35 2
10 12/22/2013 23:08:32 -73.91, 6.90 82.68 12/22/2013 23:09:44 -73.90, 7.39 82.71 15.09 72
11 12/25/2013 17:03:41 -73.69, 98.59 82.96 12/25/2013 17:02:50 -73.68, 98.62 82.97 1.46 51
12 12/25/2013 17:53:09 73.73, -93.86 97.09 12/25/2013 17:53:28 73.73, -93.92 97.09 1.81 19




NCC Satellite Simultaneous Nadir Overpasses (SNOs) Prediction Service
